QPF
0.00 0.00 0.09 0.15 0.12 0.03 0.00 0.00 0.00 0.00 0.00 0.00 0.00 0.00 0.00 0.00 0.00 0.00 0.00 0.00 0.00 0.00 0.00 0.00 0.00 0.00 0.00 0.00 0.02 0.01 0.03 0.10 0.14 0.15 0.09 0.03 0.01 0.04 0.06 0.03 0.04 0.03 0.10 0.14 0.17 0.14 0.02 0.00 0.00
0.01 0.01 0.02 0.02 0.05 0.00 0.00 0.00 0.00 0.01 0.00 0.00 0.00 0.00 0.00 0.00 0.00 0.00 0.00 0.01 0.00 0.00 0.00 0.00 0.00 0.00 0.00 0.02 0.01 0.04 0.07 0.10 0.20 0.23 0.10 0.05 0.09 0.08 0.05 0.01 0.02 0.08 0.10 0.15 0.05 0.00 0.00 0.00 0.00
0.14 0.22 0.08 0.01 0.00 0.00 0.00 0.00 0.00 0.00 0.00 0.00 0.00 0.00 0.00 0.00 0.00 0.00 0.00 0.00 0.00 0.00 0.00 0.00 0.00 0.00 0.00 0.01 0.02 0.06 0.13 0.16 0.26 0.25 0.11 0.09 0.10 0.04 0.00 0.02 0.04 0.09 0.07 0.04 0.02 0.01 0.00 0.00 0.00
0.25 0.43 0.18 0.03 0.00 0.00 0.00 0.00 0.00 0.00 0.00 0.00 0.00 0.00 0.00 0.00 0.00 0.00 0.00 0.00 0.00 0.00 0.00 0.00 0.00 0.00 0.00 0.00 0.01 0.02 0.05 0.17 0.34 0.19 0.08 0.04 0.02 0.02 0.01 0.06 0.04 0.14 0.03 0.01 0.03 0.01 0.00 0.00 0.00
0.09 0.15 0.01 0.00 0.00 0.00 0.00 0.00 0.00 0.00 0.00 0.00 0.00 0.00 0.00 0.00 0.00 0.00 0.00 0.00 0.00 0.00 0.00 0.00 0.00 0.00 0.00 0.00 0.00 0.01 0.07 0.12 0.18 0.10 0.08 0.03 0.02 0.02 0.01 0.03 0.10 0.06 0.00 0.01 0.00 0.00 0.00 0.00 0.00
0.07 0.03 0.00 0.00 0.00 0.00 0.00 0.00 0.00 0.00 0.00 0.00 0.00 0.00 0.00 0.00 0.00 0.00 0.00 0.00 0.00 0.00 0.00 0.00 0.00 0.00 0.00 0.00 0.00 0.00 0.05 0.10 0.02 0.08 0.04 0.01 0.02 0.01 0.06 0.17 0.15 0.02 0.00 0.00 0.00 0.00 0.00 0.00 0.00
0.00 0.00 0.00 0.00 0.00 0.00 0.00 0.00 0.00 0.00 0.00 0.00 0.00 0.00 0.00 0.00 0.00 0.00 0.00 0.00 0.00 0.00 0.00 0.00 0.00 0.00 0.00 0.00 0.00 0.00 0.01 0.06 0.04 0.02 0.00 0.00 0.01 0.06 0.13 0.10 0.02 0.00 0.00 0.00 0.00 0.00 0.00 0.00 0.00
0.01 0.00 0.00 0.00 0.00 0.00 0.00 0.00 0.00 0.00 0.00 0.00 0.00 0.00 0.00 0.00 0.00 0.00 0.00 0.00 0.00 0.00 0.00 0.00 0.00 0.00 0.00 0.00 0.00 0.00 0.00 0.00 0.00 0.00 0.00 0.00 0.00 0.03 0.05 0.00 0.00 0.00 0.00 0.00 0.00 0.00 0.00 0.00 0.00
0.02 0.01 0.00 0.00 0.00 0.00 0.00 0.00 0.00 0.00 0.00 0.00 0.00 0.00 0.00 0.00 0.00 0.00 0.00 0.00 0.00 0.00 0.00 0.00 0.00 0.00 0.00 0.00 0.00 0.00 0.00 0.00 0.01 0.00 0.00 0.00 0.00 0.00 0.00 0.00 0.00 0.00 0.00 0.00 0.00 0.00 0.00 0.00 0.00
0.02 0.01 0.00 0.00 0.00 0.00 0.00 0.00 0.00 0.00 0.00 0.00 0.00 0.00 0.00 0.00 0.00 0.00 0.00 0.00 0.00 0.00 0.00 0.00 0.00 0.00 0.00 0.00 0.00 0.00 0.00 0.00 0.03 0.01 0.00 0.00 0.01 0.00 0.00 0.00 0.00 0.00 0.00 0.00 0.00 0.00 0.00 0.00 0.00
0.02 0.01 0.00 0.00 0.00 0.00 0.00 0.00 0.00 0.00 0.00 0.00 0.00 0.00 0.00 0.00 0.00 0.00 0.00 0.00 0.00 0.00 0.00 0.00 0.00 0.00 0.00 0.01 0.07 0.05 0.01 0.00 0.01 0.02 0.02 0.03 0.03 0.00 0.00 0.00 0.00 0.00 0.00 0.00 0.00 0.00 0.00 0.00 0.00
0.02 0.00 0.00 0.00 0.00 0.00 0.00 0.00 0.00 0.00 0.00 0.00 0.00 0.00 0.00 0.00 0.00 0.00 0.00 0.00 0.00 0.00 0.00 0.00 0.00 0.00 0.00 0.00 0.05 0.03 0.01 0.00 0.00 0.04 0.01 0.00 0.00 0.00 0.00 0.00 0.00 0.00 0.00 0.00 0.00 0.00 0.00 0.00 0.00
0.01 0.00 0.00 0.00 0.00 0.00 0.00 0.00 0.00 0.00 0.00 0.00 0.00 0.00 0.00 0.00 0.00 0.00 0.00 0.00 0.01 0.00 0.00 0.00 0.00 0.00 0.00 0.00 0.00 0.01 0.01 0.00 0.01 0.00 0.00 0.00 0.00 0.00 0.00 0.00 0.00 0.00 0.00 0.00 0.00 0.00 0.00 0.00 0.00
0.00 0.00 0.00 0.00 0.00 0.00 0.00 0.00 0.00 0.00 0.00 0.00 0.00 0.00 0.00 0.00 0.00 0.00 0.00 0.00 0.02 0.01 0.00 0.00 0.00 0.00 0.00 0.00 0.00 0.00 0.01 0.01 0.00 0.00 0.00 0.00 0.00 0.00 0.00 0.00 0.00 0.00 0.00 0.00 0.00 0.00 0.00 0.00 0.00
0.00 0.00 0.00 0.00 0.00 0.00 0.00 0.00 0.00 0.00 0.00 0.00 0.00 0.00 0.00 0.00 0.00 0.00 0.00 0.00 0.00 0.00 0.00 0.00 0.00 0.00 0.00 0.00 0.00 0.00 0.00 0.00 0.00 0.00 0.00 0.00 0.00 0.01 0.00 0.00 0.00 0.00 0.00 0.08 0.01 0.00 0.02 0.00 0.00
0.01 0.01 0.00 0.00 0.00 0.00 0.00 0.00 0.00 0.00 0.00 0.00 0.00 0.00 0.00 0.00 0.00 0.00 0.00 0.00 0.00 0.00 0.00 0.00 0.00 0.00 0.00 0.00 0.00 0.00 0.00 0.00 0.00 0.00 0.00 0.00 0.00 0.01 0.00 0.00 0.00 0.03 0.04 0.05 0.03 0.02 0.04 0.01 0.00
0.02 0.07 0.03 0.00 0.00 0.00 0.00 0.00 0.00 0.00 0.00 0.00 0.00 0.00 0.00 0.00 0.00 0.00 0.00 0.00 0.00 0.00 0.00 0.01 0.00 0.00 0.00 0.00 0.00 0.00 0.00 0.00 0.00 0.00 0.00 0.00 0.00 0.00 0.00 0.00 0.00 0.04 0.06 0.02 0.07 0.13 0.11 0.02 0.01
0.00 0.03 0.07 0.01 0.00 0.00 0.00 0.00 0.00 0.00 0.00 0.00 0.00 0.00 0.00 0.00 0.00 0.00 0.00 0.00 0.00 0.00 0.00 0.00 0.00 0.00 0.00 0.00 0.00 0.01 0.00 0.00 0.00 0.00 0.00 0.00 0.00 0.00 0.01 0.01 0.07 0.03 0.08 0.03 0.06 0.08 0.02 0.03 0.02
0.00 0.01 0.02 0.00 0.00 0.00 0.00 0.00 0.00 0.00 0.00 0.00 0.00 0.00 0.00 0.00 0.00 0.00 0.00 0.00 0.00 0.00 0.00 0.00 0.00 0.00 0.00 0.00 0.00 0.01 0.00 0.00 0.00 0.00 0.00 0.00 0.00 0.00 0.00 0.03 0.10 0.03 0.14 0.14 0.21 0.06 0.02 0.11 0.01
0.01 0.02 0.01 0.00 0.00 0.00 0.01 0.00 0.00 0.00 0.00 0.00 0.00 0.00 0.00 0.00 0.00 0.00 0.00 0.00 0.00 0.00 0.00 0.00 0.00 0.01 0.01 0.00 0.02 0.07 0.01 0.01 0.00 0.00 0.00 0.00 0.00 0.00 0.00 0.02 0.05 0.03 0.08 0.04 0.07 0.07 0.02 0.02 0.00
0.00 0.00 0.02 0.02 0.02 0.01 0.01 0.00 0.00 0.00 0.00 0.00 0.00 0.00 0.00 0.00 0.00 0.00 0.00 0.00 0.00 0.00 0.00 0.00 0.00 0.00 0.00 0.02 0.03 0.04 0.02 0.07 0.02 0.01 0.00 0.00 0.00 0.00 0.00 0.01 0.02 0.04 0.04 0.00 0.03 0.02 0.00 0.01 0.02
0.01 0.00 0.00 0.05 0.11 0.08 0.02 0.00 0.00 0.00 0.00 0.00 0.00 0.00 0.00 0.00 0.00 0.00 0.00 0.00 0.00 0.00 0.00 0.00 0.00 0.00 0.00 0.01 0.00 0.00 0.00 0.02 0.01 0.00 0.00 0.00 0.00 0.00 0.00 0.01 0.00 0.01 0.02 0.00 0.01 0.00 0.00 0.00 0.00
0.00 0.00 0.00 0.00 0.04 0.09 0.06 0.00 0.00 0.00 0.00 0.00 0.00 0.00 0.00 0.00 0.00 0.00 0.00 0.00 0.00 0.00 0.00 0.00 0.00 0.00 0.00 0.00 0.00 0.00 0.00 0.00 0.00 0.00 0.00 0.00 0.00 0.00 0.00 0.00 0.00 0.02 0.01 0.00 0.00 0.00 0.00 0.00 0.00
0.00 0.00 0.00 0.00 0.00 0.00 0.01 0.00 0.00 0.00 0.00 0.00 0.00 0.00 0.00 0.00 0.00 0.00 0.00 0.00 0.00 0.00 0.00 0.00 0.00 0.00 0.00 0.00 0.00 0.00 0.00 0.00 0.00 0.01 0.04 0.01 0.01 0.01 0.00 0.01 0.00 0.00 0.00 0.00 0.00 0.00 0.00 0.00 0.00
0.00 0.00 0.00 0.00 0.00 0.00 0.00 0.00 0.00 0.00 0.00 0.00 0.00 0.00 0.00 0.00 0.00 0.00 0.00 0.00 0.00 0.00 0.00 0.00 0.00 0.00 0.00 0.00 0.00 0.00 0.00 0.00 0.01 0.01 0.00 0.00 0.00 0.01 0.01 0.02 0.00 0.00 0.00 0.00 0.00 0.00 0.00 0.00 0.00
0.00 0.00 0.00 0.00 0.00 0.00 0.00 0.00 0.00 0.00 0.00 0.00 0.00 0.00 0.00 0.02 0.00 0.00 0.00 0.00 0.00 0.00 0.00 0.00 0.00 0.00 0.00 0.00 0.00 0.00 0.00 0.00 0.00 0.00 0.00 0.00 0.00 0.00 0.02 0.02 0.00 0.00 0.00 0.00 0.00 0.00 0.00 0.00 0.00
0.00 0.00 0.01 0.00 0.00 0.00 0.00 0.00 0.00 0.00 0.00 0.00 0.00 0.00 0.00 0.00 0.00 0.00 0.00 0.00 0.00 0.00 0.00 0.00 0.00 0.00 0.00 0.00 0.00 0.00 0.00 0.00 0.00 0.00 0.00 0.00 0.00 0.00 0.00 0.00 0.00 0.00 0.00 0.00 0.00 0.00 0.00 0.00 0.00
0.00 0.00 0.02 0.00 0.00 0.00 0.00 0.00 0.00 0.00 0.00 0.00 0.00 0.00 0.00 0.00 0.00 0.00 0.00 0.00 0.00 0.00 0.00 0.00 0.00 0.00 0.00 0.00 0.00 0.00 0.00 0.00 0.00 0.00 0.00 0.00 0.00 0.00 0.00 0.00 0.00 0.00 0.00 0.00 0.00 0.00 0.00 0.00 0.00
0.00 0.00 0.00 0.00 0.00 0.00 0.00 0.00 0.00 0.00 0.00 0.00 0.00 0.00 0.00 0.00 0.00 0.00 0.00 0.00 0.00 0.00 0.00 0.00 0.00 0.00 0.00 0.00 0.00 0.00 0.00 0.00 0.00 0.00 0.00 0.00 0.00 0.01 0.03 0.02 0.01 0.00 0.00 0.00 0.00 0.00 0.00 0.00 0.00
0.00 0.00 0.00 0.00 0.00 0.01 0.01 0.00 0.00 0.00 0.00 0.00 0.00 0.00 0.00 0.00 0.00 0.00 0.00 0.00 0.00 0.00 0.00 0.00 0.00 0.00 0.00 0.00 0.00 0.00 0.00 0.00 0.00 0.00 0.00 0.00 0.01 0.04 0.04 0.05 0.07 0.02 0.00 0.00 0.00 0.00 0.00 0.00 0.00
MSLP
1005.53 1006.24 1006.86 1007.19 1007.76 1006.04 1005.72 1005.64 1004.51 1003.73 1003.90 1004.12 1004.28 1005.11 1006.32 1006.55 1007.64 1010.24 1010.84 1011.33 1011.91 1012.11 1012.23 1012.32 1012.33 1012.20 1012.04 1011.96 1011.97 1012.47 1012.81 1013.26 1013.70 1013.95 1014.18 1014.75 1015.18 1015.37 1015.66 1015.50 1015.59 1015.83 1015.99 1015.92 1016.19 1016.28 1016.21 1016.41 1016.47
1005.90 1006.84 1006.75 1005.93 1005.86 1006.02 1005.78 1004.47 1004.11 1003.78 1004.12 1004.30 1004.80 1005.59 1005.99 1007.68 1008.05 1009.64 1010.64 1011.36 1011.73 1012.01 1012.32 1012.47 1012.68 1012.59 1012.27 1011.86 1011.92 1012.47 1012.91 1013.41 1013.95 1014.31 1014.64 1015.14 1015.47 1015.74 1015.69 1015.77 1015.85 1016.09 1016.12 1016.23 1016.36 1016.49 1016.57 1016.73 1016.76
1006.93 1007.36 1006.60 1005.49 1004.73 1004.49 1004.50 1004.13 1004.03 1003.75 1004.08 1004.47 1005.11 1005.73 1006.35 1007.79 1008.71 1009.63 1010.61 1011.35 1011.66 1012.32 1012.67 1012.89 1012.97 1012.85 1012.59 1012.25 1012.37 1012.77 1013.10 1013.75 1014.22 1014.69 1015.17 1015.66 1015.78 1015.88 1015.86 1016.04 1016.07 1016.31 1016.28 1016.39 1016.62 1016.80 1016.95 1016.96 1017.02
1007.92 1007.78 1007.21 1005.22 1003.91 1003.83 1003.13 1003.29 1003.33 1004.02 1004.68 1005.06 1005.46 1006.48 1007.05 1007.36 1008.54 1009.45 1010.51 1011.28 1011.81 1012.59 1012.92 1013.03 1013.21 1013.29 1012.88 1012.81 1012.88 1013.09 1013.35 1014.08 1014.54 1014.93 1015.35 1016.03 1016.14 1016.12 1016.12 1016.14 1016.32 1016.48 1016.56 1016.74 1016.94 1017.12 1017.17 1017.15 1017.22
1009.87 1009.94 1007.62 1004.64 1003.36 1002.86 1002.63 1002.75 1003.27 1004.17 1004.83 1005.74 1006.23 1007.13 1007.43 1008.23 1008.59 1009.48 1010.50 1011.30 1011.88 1012.60 1013.02 1013.39 1013.53 1013.61 1013.42 1013.36 1013.48 1013.75 1014.05 1014.45 1015.06 1015.77 1016.17 1015.96 1016.46 1016.39 1016.29 1016.31 1016.45 1016.74 1016.81 1016.93 1017.18 1017.29 1017.24 1017.17 1017.21
1009.42 1009.08 1006.57 1004.87 1003.66 1002.90 1002.57 1003.10 1003.52 1004.36 1005.21 1006.37 1006.97 1007.36 1007.86 1008.14 1008.90 1009.69 1010.46 1011.26 1011.82 1012.43 1013.12 1013.52 1013.73 1013.90 1014.00 1014.12 1014.05 1014.25 1014.63 1015.06 1015.46 1016.04 1016.57 1016.30 1016.66 1016.45 1016.47 1016.58 1016.68 1016.86 1017.01 1017.11 1017.28 1017.39 1017.48 1017.30 1017.14
1010.40 1008.20 1006.41 1004.73 1003.43 1002.81 1002.80 1002.88 1003.31 1004.24 1005.08 1006.31 1007.09 1007.44 1008.18 1008.28 1008.96 1009.29 1010.53 1011.23 1011.97 1012.43 1013.16 1013.72 1014.05 1014.23 1014.45 1014.47 1014.37 1014.43 1015.03 1015.62 1015.80 1016.12 1016.42 1016.39 1016.67 1016.81 1016.77 1016.74 1016.82 1017.06 1017.13 1017.20 1017.27 1017.47 1017.50 1017.42 1017.31
1009.67 1008.34 1006.09 1004.18 1003.36 1003.03 1002.55 1002.80 1003.16 1003.74 1004.95 1006.07 1006.46 1007.64 1008.20 1008.52 1008.94 1009.49 1010.45 1011.45 1012.24 1012.78 1013.30 1013.60 1014.07 1014.38 1014.63 1014.74 1014.93 1015.02 1015.40 1015.50 1015.81 1016.15 1016.35 1016.53 1016.72 1016.88 1016.95 1016.91 1016.92 1017.05 1017.19 1017.27 1017.37 1017.45 1017.43 1017.48 1017.47
1008.03 1007.16 1004.56 1003.42 1002.86 1002.91 1002.82 1003.03 1003.12 1003.24 1004.69 1005.90 1006.30 1007.34 1007.97 1008.35 1009.34 1010.06 1010.78 1011.62 1012.39 1012.99 1013.42 1013.76 1014.05 1014.53 1015.02 1015.43 1015.55 1015.58 1015.50 1015.64 1015.68 1015.98 1016.33 1016.67 1016.97 1016.98 1016.98 1017.09 1016.98 1017.08 1017.21 1017.31 1017.38 1017.37 1017.35 1017.31 1017.39
1006.92 1005.11 1003.24 1002.33 1002.47 1002.67 1002.70 1002.88 1003.32 1004.11 1005.27 1006.41 1007.15 1007.89 1008.23 1008.51 1009.14 1009.93 1010.58 1011.53 1012.30 1012.87 1013.36 1013.61 1014.08 1014.60 1015.09 1015.26 1015.88 1016.20 1016.06 1015.93 1015.95 1016.04 1016.49 1016.99 1017.03 1017.13 1017.06 1016.98 1016.88 1017.08 1017.24 1017.25 1017.22 1017.27 1017.27 1017.23 1017.21
1005.42 1003.59 1002.46 1001.94 1002.01 1002.29 1002.22 1002.69 1003.38 1004.41 1005.95 1006.79 1007.33 1007.94 1008.34 1008.53 1008.96 1009.82 1010.47 1011.26 1011.91 1012.26 1012.91 1013.55 1013.88 1014.33 1014.75 1015.25 1015.88 1016.26 1016.49 1016.17 1016.24 1016.30 1016.42 1016.81 1017.24 1017.13 1016.91 1016.99 1016.95 1017.27 1017.30 1017.35 1017.24 1017.28 1017.23 1017.16 1016.96
1004.47 1002.17 1001.84 1001.74 1001.65 1001.90 1002.08 1002.64 1003.54 1004.57 1005.94 1006.83 1007.53 1007.90 1008.25 1008.56 1008.84 1009.48 1010.25 1010.71 1011.78 1012.25 1012.61 1013.16 1013.64 1014.13 1014.77 1015.21 1015.61 1016.07 1016.34 1016.09 1016.29 1016.50 1016.36 1016.62 1016.90 1017.00 1017.09 1017.12 1017.17 1017.29 1017.36 1017.38 1017.22 1017.15 1017.04 1017.00 1016.70
1003.54 1002.07 1001.77 1001.63 1001.77 1001.94 1002.28 1003.16 1004.10 1005.18 1005.96 1006.76 1007.38 1007.75 1008.02 1008.44 1008.97 1009.69 1010.15 1010.56 1011.22 1011.87 1012.07 1012.82 1013.49 1014.05 1014.34 1014.90 1015.33 1015.66 1016.15 1015.92 1015.95 1015.77 1015.88 1016.07 1016.34 1016.69 1016.89 1016.90 1017.19 1017.28 1017.16 1017.15 1017.01 1017.05 1017.01 1016.77 1016.49
1002.92 1002.24 1001.98 1002.04 1002.43 1002.45 1002.93 1003.62 1004.22 1005.38 1005.94 1006.67 1007.17 1007.51 1007.69 1008.25 1008.82 1009.47 1010.10 1010.73 1011.30 1011.68 1012.12 1012.82 1013.29 1013.70 1014.11 1014.31 1014.73 1015.18 1015.36 1015.48 1015.45 1015.58 1015.61 1015.87 1016.09 1016.23 1016.25 1016.65 1016.84 1016.93 1016.83 1016.68 1016.63 1016.65 1016.55 1016.44 1016.45
1003.53 1004.09 1002.93 1002.71 1002.78 1003.40 1003.49 1004.39 1004.83 1005.34 1005.91 1006.55 1006.98 1007.36 1007.58 1008.28 1008.81 1009.33 1009.92 1010.49 1011.10 1011.73 1012.18 1012.61 1013.11 1013.41 1013.85 1014.15 1014.20 1014.46 1014.61 1015.05 1015.33 1015.60 1015.71 1015.90 1016.05 1016.32 1016.15 1016.28 1016.59 1016.55 1016.48 1016.69 1016.78 1016.68 1016.49 1016.66 1016.21
1004.79 1006.31 1005.60 1003.88 1003.54 1004.34 1004.01 1005.06 1005.17 1005.44 1006.03 1006.55 1006.81 1007.31 1007.96 1008.40 1008.70 1009.05 1009.78 1010.56 1011.26 1011.75 1012.33 1012.67 1013.00 1013.33 1013.73 1014.08 1014.12 1014.40 1014.79 1015.01 1015.18 1015.38 1015.71 1015.78 1015.97 1016.21 1016.27 1016.35 1016.55 1016.62 1016.46 1016.64 1016.69 1016.58 1016.70 1016.57 1016.37
1008.64 1008.83 1006.84 1004.60 1003.81 1004.27 1004.68 1005.35 1005.34 1005.52 1006.07 1006.62 1007.03 1007.60 1008.17 1008.65 1009.00 1009.20 1009.65 1010.50 1011.21 1011.58 1012.13 1012.69 1012.95 1013.42 1013.88 1014.27 1014.44 1014.76 1015.03 1015.18 1015.28 1015.35 1015.39 1015.56 1015.71 1015.84 1016.04 1016.27 1016.27 1016.43 1016.08 1016.55 1016.71 1016.61 1016.69 1016.55 1016.46
1009.04 1008.48 1006.92 1005.09 1004.44 1004.32 1004.80 1005.05 1005.42 1005.58 1006.07 1006.68 1007.22 1007.72 1008.27 1008.79 1009.07 1009.21 1009.91 1010.31 1010.82 1011.23 1011.74 1012.31 1012.86 1013.40 1013.88 1014.35 1014.56 1014.77 1015.02 1015.11 1015.30 1015.41 1015.49 1015.56 1015.50 1015.61 1015.88 1015.96 1016.10 1016.10 1016.25 1016.07 1016.36 1016.57 1016.37 1016.37 1016.47
1005.64 1007.16 1005.78 1004.02 1003.81 1004.33 1004.78 1005.03 1005.28 1005.46 1005.94 1006.56 1007.19 1007.61 1008.17 1008.47 1008.65 1008.89 1009.46 1010.03 1010.58 1010.95 1011.65 1012.30 1012.97 1013.42 1013.93 1014.27 1014.65 1014.95 1015.01 1015.08 1015.22 1015.25 1015.20 1015.22 1015.27 1015.29 1015.57 1015.83 1015.94 1016.14 1016.33 1016.15 1016.07 1016.07 1016.20 1016.15 1016.15
1004.85 1004.89 1003.98 1003.34 1003.33 1003.71 1005.17 1005.40 1005.33 1005.33 1005.54 1005.94 1006.65 1007.07 1007.47 1007.87 1008.12 1008.46 1008.95 1009.58 1010.15 1010.68 1011.17 1012.03 1012.81 1013.28 1013.81 1013.77 1014.45 1014.90 1015.09 1014.91 1015.01 1015.01 1015.24 1015.09 1015.03 1015.05 1015.24 1015.55 1015.80 1015.77 1015.92 1016.04 1015.93 1016.01 1016.25 1016.15 1016.08
1003.26 1002.96 1003.54 1004.55 1004.68 1003.89 1005.05 1005.92 1005.65 1005.32 1005.29 1005.45 1005.73 1006.25 1006.61 1007.01 1007.47 1007.93 1008.28 1008.74 1009.41 1010.14 1010.61 1011.17 1012.12 1012.77 1013.20 1013.65 1014.23 1014.49 1014.73 1015.15 1014.79 1014.86 1014.90 1014.64 1014.41 1014.46 1014.77 1015.14 1015.45 1015.65 1015.72 1015.96 1015.80 1015.77 1015.93 1016.31 1016.09
1003.20 1002.84 1003.76 1005.58 1008.02 1008.47 1007.40 1006.93 1006.02 1005.50 1005.20 1005.07 1005.02 1005.28 1005.64 1006.19 1006.60 1007.10 1007.54 1008.22 1008.75 1009.44 1010.07 1010.54 1011.33 1012.10 1012.75 1013.14 1013.79 1014.18 1014.37 1014.63 1014.25 1014.24 1014.52 1014.38 1014.22 1014.13 1014.16 1014.47 1014.86 1015.29 1015.53 1015.70 1015.71 1015.71 1015.65 1015.87 1016.05
1002.24 1002.85 1004.83 1007.53 1009.56 1010.34 1007.25 1006.65 1006.22 1005.40 1005.20 1004.72 1004.35 1004.53 1004.89 1005.06 1005.66 1006.33 1006.80 1007.31 1007.91 1008.74 1009.51 1010.16 1010.92 1011.63 1012.15 1012.79 1013.12 1013.44 1013.71 1013.67 1013.75 1014.01 1013.91 1014.06 1014.03 1013.82 1013.71 1014.00 1014.38 1015.00 1015.25 1015.31 1015.40 1015.36 1015.46 1015.59 1015.88
1001.34 1003.31 1005.89 1007.93 1009.73 1011.23 1007.92 1006.44 1006.02 1004.90 1004.25 1004.05 1003.56 1003.52 1003.70 1004.14 1004.79 1005.35 1005.99 1006.68 1007.43 1008.24 1009.14 1009.98 1010.58 1011.27 1011.73 1012.24 1012.75 1013.13 1013.43 1013.61 1013.75 1013.90 1014.06 1014.05 1013.84 1013.67 1013.55 1013.76 1014.13 1014.29 1014.69 1014.91 1015.09 1015.25 1015.35 1015.42 1015.47
1001.24 1003.88 1006.71 1009.14 1010.82 1009.54 1007.74 1006.34 1004.57 1003.35 1003.03 1003.12 1003.03 1002.85 1002.76 1003.24 1004.30 1005.05 1005.83 1006.41 1007.10 1007.98 1008.80 1009.72 1010.42 1011.02 1011.43 1011.88 1012.37 1012.61 1012.86 1013.03 1013.26 1013.52 1013.63 1013.59 1013.59 1013.42 1013.31 1013.65 1013.93 1014.07 1014.19 1014.46 1014.67 1014.92 1015.04 1015.07 1015.14
1002.32 1004.38 1007.12 1010.47 1011.77 1009.53 1007.28 1005.54 1003.24 1002.05 1002.10 1002.24 1002.19 1002.29 1002.65 1003.01 1003.80 1004.83 1005.38 1006.01 1006.76 1007.60 1008.46 1009.42 1010.32 1010.92 1011.30 1011.52 1011.86 1012.16 1012.41 1012.63 1012.76 1012.81 1012.87 1012.91 1012.96 1012.91 1012.93 1013.24 1013.58 1013.87 1013.81 1014.07 1014.40 1014.63 1014.61 1014.64 1014.56
1002.34 1004.85 1007.17 1010.76 1011.73 1010.33 1006.83 1004.34 1002.69 1002.02 1001.99 1002.00 1002.13 1002.49 1003.04 1003.38 1003.95 1004.51 1005.30 1005.94 1006.68 1007.49 1008.25 1009.05 1009.95 1010.55 1010.94 1011.25 1011.56 1011.81 1011.93 1012.14 1012.34 1012.36 1012.43 1012.41 1012.39 1012.51 1012.54 1012.83 1013.09 1013.35 1013.51 1013.79 1014.12 1014.40 1014.52 1014.45 1014.32
999.81 1003.63 1006.95 1009.25 1009.77 1008.55 1006.04 1004.51 1003.42 1002.41 1002.18 1002.06 1002.30 1002.78 1003.15 1003.58 1004.11 1004.65 1005.47 1006.08 1006.71 1007.28 1008.09 1009.01 1009.68 1010.22 1010.66 1011.00 1011.27 1011.49 1011.65 1011.72 1011.78 1011.90 1012.08 1012.08 1012.01 1012.01 1012.16 1012.23 1012.48 1012.72 1012.95 1013.38 1013.87 1014.23 1014.38 1014.43 1014.27
1000.03 1002.17 1004.28 1006.47 1008.00 1008.05 1005.75 1004.20 1002.31 1002.14 1001.89 1001.85 1002.37 1002.68 1003.00 1003.64 1004.21 1004.83 1005.53 1006.08 1006.80 1007.37 1008.08 1008.98 1009.65 1010.15 1010.53 1010.79 1011.03 1011.25 1011.32 1011.36 1011.46 1011.58 1011.52 1011.45 1011.37 1011.29 1011.42 1011.79 1012.14 1012.36 1012.80 1013.13 1013.55 1013.98 1014.21 1014.35 1014.30
998.00 999.94 1001.97 1005.06 1005.47 1005.66 1004.73 1003.21 1001.60 1001.57 1001.65 1001.63 1002.65 1003.03 1003.26 1003.67 1004.21 1004.98 1005.59 1006.20 1006.87 1007.54 1008.03 1008.57 1009.16 1009.58 1009.81 1009.89 1010.30 1010.48 1010.56 1010.69 1010.85 1010.93 1010.93 1011.00 1011.14 1011.42 1011.95 1012.57 1012.72 1012.75 1012.74 1012.73 1013.07 1013.67 1013.87 1013.99 1014.12
Thickness
5835 5829 5823 5807 5768 5783 5765 5766 5794 5795 5794 5808 5812 5800 5786 5794 5778 5742 5783 5785 5781 5779 5778 5777 5778 5780 5783 5784 5785 5780 5779 5776 5773 5773 5772 5769 5767 5768 5766 5770 5771 5769 5771 5773 5769 5770 5771 5770 5769
5828 5826 5821 5811 5773 5749 5754 5787 5784 5798 5802 5809 5808 5801 5792 5774 5794 5784 5779 5784 5781 5780 5778 5778 5776 5778 5782 5785 5786 5782 5780 5776 5772 5771 5770 5765 5765 5765 5767 5769 5771 5769 5770 5771 5769 5769 5769 5768 5768
5822 5813 5800 5796 5783 5762 5768 5788 5791 5802 5810 5806 5798 5805 5796 5778 5788 5786 5788 5786 5782 5779 5777 5775 5775 5777 5779 5784 5784 5781 5780 5774 5771 5768 5766 5761 5762 5764 5768 5768 5770 5768 5771 5770 5768 5767 5767 5767 5767
5799 5777 5800 5785 5776 5792 5798 5800 5806 5800 5803 5807 5803 5782 5798 5810 5795 5796 5795 5790 5784 5778 5774 5774 5773 5774 5778 5780 5780 5778 5778 5772 5769 5766 5760 5758 5760 5762 5767 5768 5769 5769 5770 5769 5767 5765 5766 5767 5767
5795 5781 5776 5786 5789 5803 5813 5817 5812 5799 5797 5795 5797 5777 5784 5798 5806 5800 5793 5789 5783 5779 5775 5773 5773 5773 5775 5776 5775 5773 5771 5769 5763 5759 5758 5758 5759 5761 5766 5768 5769 5768 5770 5769 5766 5766 5768 5769 5770
5784 5784 5774 5773 5788 5805 5813 5815 5810 5802 5798 5792 5786 5782 5782 5804 5799 5795 5795 5790 5788 5783 5776 5773 5771 5770 5770 5769 5770 5768 5766 5764 5761 5756 5756 5757 5756 5761 5765 5767 5768 5768 5768 5769 5768 5767 5767 5769 5771
5767 5780 5781 5790 5793 5799 5805 5821 5808 5804 5798 5791 5798 5778 5787 5799 5804 5807 5798 5795 5789 5785 5779 5774 5770 5768 5766 5767 5769 5769 5764 5758 5757 5756 5756 5757 5757 5760 5763 5766 5768 5768 5769 5770 5770 5769 5769 5770 5771
5778 5780 5789 5801 5791 5788 5820 5819 5823 5814 5800 5815 5813 5778 5776 5798 5808 5807 5801 5794 5787 5783 5778 5776 5770 5769 5770 5768 5765 5764 5758 5757 5756 5755 5756 5756 5757 5760 5762 5766 5768 5770 5770 5770 5771 5771 5772 5771 5771
5803 5782 5796 5800 5801 5803 5822 5812 5830 5838 5816 5813 5815 5804 5806 5811 5807 5798 5794 5791 5784 5781 5779 5776 5773 5770 5765 5759 5754 5754 5755 5755 5757 5757 5756 5755 5755 5759 5763 5766 5770 5770 5771 5772 5773 5774 5775 5775 5774
5801 5805 5816 5833 5828 5815 5823 5821 5822 5814 5807 5802 5802 5809 5813 5812 5805 5794 5791 5784 5783 5780 5781 5779 5775 5770 5763 5760 5753 5749 5750 5755 5758 5759 5756 5755 5757 5760 5763 5767 5772 5772 5772 5773 5775 5776 5777 5776 5776
5814 5819 5841 5843 5842 5838 5829 5826 5831 5812 5793 5800 5795 5801 5808 5809 5805 5797 5795 5791 5786 5791 5787 5781 5778 5772 5770 5765 5758 5751 5749 5755 5757 5758 5758 5757 5756 5761 5767 5769 5770 5772 5774 5775 5776 5777 5778 5779 5781
5806 5856 5853 5851 5850 5842 5831 5838 5822 5819 5808 5815 5811 5812 5812 5809 5808 5803 5798 5797 5791 5790 5792 5788 5781 5776 5772 5769 5762 5759 5756 5760 5758 5758 5760 5759 5760 5763 5765 5768 5769 5773 5775 5776 5779 5781 5782 5782 5784
5834 5855 5858 5860 5856 5850 5848 5828 5819 5814 5822 5822 5818 5816 5812 5812 5810 5808 5805 5804 5798 5791 5794 5791 5787 5784 5777 5774 5769 5767 5762 5767 5766 5765 5765 5765 5767 5767 5768 5771 5772 5775 5778 5779 5781 5781 5783 5785 5786
5859 5861 5860 5858 5844 5851 5837 5829 5827 5820 5826 5818 5816 5813 5816 5814 5812 5811 5807 5802 5798 5798 5795 5793 5791 5788 5784 5782 5777 5776 5776 5771 5771 5771 5772 5772 5773 5774 5776 5777 5776 5779 5781 5781 5783 5784 5786 5790 5789
5851 5820 5849 5851 5848 5834 5844 5814 5812 5827 5827 5817 5815 5817 5818 5816 5814 5809 5812 5808 5804 5801 5800 5796 5794 5794 5791 5789 5788 5787 5786 5782 5781 5778 5777 5778 5779 5778 5781 5783 5781 5782 5782 5782 5782 5783 5787 5790 5792
5832 5805 5788 5838 5843 5835 5829 5787 5819 5832 5823 5814 5818 5818 5814 5813 5815 5817 5814 5810 5807 5804 5800 5799 5799 5796 5793 5791 5790 5789 5787 5788 5787 5785 5782 5783 5782 5782 5783 5783 5783 5784 5785 5785 5786 5788 5787 5789 5791
5787 5750 5785 5821 5847 5834 5827 5799 5823 5835 5825 5816 5815 5814 5813 5810 5814 5818 5817 5812 5809 5807 5802 5797 5799 5796 5793 5789 5787 5785 5784 5784 5786 5787 5789 5788 5787 5786 5785 5784 5786 5788 5791 5789 5788 5790 5789 5788 5790
5755 5759 5785 5806 5832 5836 5823 5816 5825 5833 5827 5819 5816 5815 5813 5809 5810 5819 5817 5815 5813 5811 5809 5804 5800 5797 5793 5788 5787 5787 5786 5785 5785 5786 5789 5789 5789 5789 5787 5788 5789 5791 5792 5793 5791 5788 5792 5791 5789
5820 5786 5792 5836 5851 5834 5823 5819 5825 5834 5829 5820 5817 5815 5814 5816 5822 5825 5823 5822 5817 5815 5810 5806 5799 5795 5790 5787 5785 5785 5787 5788 5787 5787 5789 5792 5792 5792 5790 5790 5791 5791 5790 5793 5794 5794 5792 5791 5792
5824 5811 5832 5855 5856 5843 5818 5817 5829 5833 5832 5831 5827 5822 5824 5825 5825 5828 5827 5826 5822 5817 5813 5807 5800 5796 5792 5795 5791 5788 5789 5791 5791 5789 5790 5793 5795 5796 5794 5791 5792 5794 5793 5793 5793 5793 5790 5791 5791
5836 5834 5838 5832 5839 5851 5834 5811 5819 5836 5842 5840 5842 5838 5837 5833 5829 5831 5831 5832 5830 5821 5819 5815 5807 5801 5798 5799 5794 5794 5794 5790 5791 5791 5793 5798 5799 5799 5796 5793 5792 5792 5793 5789 5792 5794 5791 5783 5787
5812 5860 5846 5819 5781 5746 5801 5774 5811 5825 5829 5838 5839 5843 5843 5840 5842 5840 5839 5836 5834 5830 5828 5824 5816 5809 5802 5803 5797 5793 5791 5786 5795 5797 5798 5800 5800 5800 5799 5797 5795 5793 5792 5791 5791 5792 5791 5788 5782
5841 5855 5831 5800 5760 5758 5804 5793 5807 5828 5820 5830 5842 5847 5850 5853 5849 5846 5847 5847 5844 5840 5833 5829 5822 5816 5811 5803 5803 5800 5796 5800 5801 5798 5800 5800 5802 5802 5804 5802 5799 5794 5792 5793 5792 5791 5790 5788 5783
5876 5850 5824 5799 5776 5735 5794 5810 5801 5817 5829 5838 5852 5858 5863 5862 5861 5860 5860 5856 5848 5846 5840 5833 5826 5821 5816 5811 5806 5802 5798 5797 5797 5799 5798 5800 5802 5804 5805 5802 5799 5798 5796 5794 5792 5790 5788 5786 5785
5861 5821 5771 5763 5740 5758 5805 5800 5811 5848 5856 5856 5856 5863 5871 5875 5867 5862 5856 5855 5852 5848 5844 5836 5830 5823 5821 5817 5812 5810 5807 5806 5803 5800 5799 5799 5799 5800 5802 5801 5798 5795 5795 5792 5789 5786 5785 5784 5783
5839 5816 5773 5742 5724 5766 5806 5802 5826 5869 5873 5876 5876 5877 5877 5881 5871 5868 5866 5863 5858 5854 5849 5841 5833 5826 5824 5822 5819 5817 5814 5811 5809 5807 5806 5805 5804 5804 5805 5802 5798 5795 5794 5792 5788 5785 5785 5785 5783
5838 5801 5812 5745 5752 5751 5797 5836 5860 5872 5867 5870 5872 5873 5871 5873 5873 5872 5870 5865 5861 5857 5853 5847 5839 5833 5830 5826 5823 5820 5819 5816 5813 5812 5810 5809 5809 5807 5806 5803 5799 5796 5795 5791 5788 5783 5780 5781 5782
5872 5846 5780 5761 5755 5755 5804 5809 5807 5844 5854 5866 5867 5867 5873 5877 5877 5875 5871 5867 5866 5862 5857 5850 5844 5837 5834 5830 5827 5823 5821 5820 5818 5816 5811 5810 5810 5810 5808 5807 5804 5800 5795 5790 5785 5779 5778 5776 5776
5857 5834 5826 5808 5792 5749 5777 5801 5856 5855 5866 5867 5870 5875 5876 5876 5875 5874 5873 5871 5868 5864 5858 5850 5843 5837 5834 5832 5828 5825 5823 5821 5819 5816 5815 5814 5814 5813 5810 5805 5800 5795 5789 5784 5778 5773 5771 5769 5769
5892 5871 5849 5788 5808 5802 5802 5809 5885 5880 5881 5883 5874 5875 5879 5880 5880 5877 5874 5871 5867 5862 5858 5853 5848 5843 5840 5838 5834 5829 5827 5824 5819 5816 5816 5814 5811 5805 5796 5789 5784 5784 5782 5778 5770 5764 5763 5761 5761